H1 CPF 2 NER 2021 4 8 9 098 01 glonass106 H2 0705201 9106 32275 2021 4 8 0 0 0 2021 4 11 23 45 0 900 1 1 0 0 0 1 H9 10 0 59312 0.00000 0 -2760615.728 10189087.001 -23221021.804 10 0 59312 900.00000 0 -5599756.792 10187383.572 -22704604.944 10 0 59312 1800.00000 0 -8340358.718 10398125.318 -21747245.076 10 0 59312 2700.00000 0 -10914338.488 10800680.974 -20367507.725 10 0 59312 3600.00000 0 -13259593.438 11362955.287 -18592161.399 10 0 59312 4500.00000 0 -15322355.368 12042815.876 -16455661.411 10 0 59312 5400.00000 0 -17059203.423 12789959.390 -13999484.188 10 0 59312 6300.00000 0 -18438652.323 13548138.669 -11271324.400 10 0 59312 7200.00000 0 -19442250.131 14257657.025 -8324170.120 10 0 59312 8100.00000 0 -20065140.248 14858024.357 -5215273.730 10 0 59312 9000.00000 0 -20316064.691 15290662.687 -2005038.428 10 0 59312 9900.00000 0 -20216809.125 15501546.379 1244157.702 10 0 59312 10800.00000 0 -19801113.731 15443664.924 4469176.894 10 0 59312 11700.00000 0 -19113096.542 15079203.458 7607352.082 10 0 59312 12600.00000 0 -18205256.420 14381348.156 10597707.861 10 0 59312 13500.00000 0 -17136140.637 13335639.406 13382147.841 10 0 59312 14400.00000 0 -15967776.047 11940814.845 15906584.921 10 0 59312 15300.00000 0 -14762972.673 10209105.900 18121992.236 10 0 59312 16200.00000 0 -13582613.621 8165974.492 19985354.392 10 0 59312 17100.00000 0 -12483045.576 5849300.023 21460500.756 10 0 59312 18000.00000 0 -11513679.587 3308049.883 22518804.934 10 0 59312 18900.00000 0 -10714902.724 600488.095 23139737.398 10 0 59312 19800.00000 0 -10116387.928 -2208004.128 23311261.032 10 0 59312 20700.00000 0 -9735872.526 -5047405.940 23030062.386 10 0 59312 21600.00000 0 -9578456.169 -7845730.453 22301614.450 10 0 59312 22500.00000 0 -9636447.143 -10531784.097 21140069.919 10 0 59312 23400.00000 0 -9889763.104 -13037897.856 19567986.943 10 0 59312 24300.00000 0 -10306869.076 -15302517.692 17615892.499 10 0 59312 25200.00000 0 -10846213.021 -17272547.204 15321691.473 10 0 59312 26100.00000 0 -11458098.452 -18905345.602 12729932.533 10 0 59312 27000.00000 0 -12086915.062 -20170298.439 9890944.672 10 0 59312 27900.00000 0 -12673633.214 -21049896.177 6859860.786 10 0 59312 28800.00000 0 -13158456.869 -21540276.101 3695547.172 10 0 59312 29700.00000 0 -13483522.605 -21651205.536 459459.699 10 0 59312 30600.00000 0 -13595530.434 -21405507.924 -2785551.025 10 0 59312 31500.00000 0 -13448194.748 -20837956.450 -5976461.865 10 0 59312 32400.00000 0 -13004411.161 -19993682.384 -9051302.696 10 0 59312 33300.00000 0 -12238047.189 -18926165.938 -11950361.087 10 0 59312 34200.00000 0 -11135280.339 -17694894.638 -14617342.369 10 0 59312 35100.00000 0 -9695426.426 -16362788.339 -17000462.407 10 0 59312 36000.00000 0 -7931222.377 -14993499.512 -19053451.923 10 0 59312 36900.00000 0 -5868550.602 -13648702.407 -20736452.928 10 0 59312 37800.00000 0 -3545615.425 -12385484.968 -22016790.284 10 0 59312 38700.00000 0 -1011604.886 -11253952.756 -22869603.841 10 0 59312 39600.00000 0 1675107.320 -10295145.094 -23278329.302 10 0 59312 40500.00000 0 4449145.972 -9539350.367 -23235018.934 10 0 59312 41400.00000 0 7240614.813 -9004890.606 -22740496.114 10 0 59312 42300.00000 0 9977771.171 -8697425.876 -21804340.827 10 0 59312 43200.00000 0 12589784.579 -8609807.229 -20444706.246 10 0 59312 44100.00000 0 15009465.562 -8722484.047 -18687969.602 10 0 59312 45000.00000 0 17175851.720 -9004448.451 -16568223.682 10 0 59312 45900.00000 0 19036544.076 -9414676.885 -14126618.255 10 0 59312 46800.00000 0 20549696.767 -9904008.028 -11410563.646 10 0 59312 47700.00000 0 21685577.346 -10417377.730 -8472811.531 10 0 59312 48600.00000 0 22427632.848 -10896316.436 -5370430.550 10 0 59312 49500.00000 0 22773017.319 -11281603.261 -2163696.483 10 0 59312 50400.00000 0 22732559.096 -11515964.079 1085081.125 10 0 59312 51300.00000 0 22330169.679 -11546698.925 4312772.801 10 0 59312 52200.00000 0 21601719.670 -11328126.890 7456659.357 10 0 59312 53100.00000 0 20593429.664 -10823744.304 10455653.918 10 0 59312 54000.00000 0 19359844.515 -10008004.202 13251491.519 10 0 59312 54900.00000 0 17961476.848 -8867640.972 15789862.776 10 0 59312 55800.00000 0 16462219.555 -7402483.516 18021469.264 10 0 59312 56700.00000 0 14926636.445 -5625721.688 19902980.156 10 0 59312 57600.00000 0 13417245.124 -3563613.899 21397871.721 10 0 59312 58500.00000 0 11991906.160 -1254647.191 22477133.721 10 0 59312 59400.00000 0 10701427.845 1251816.066 23119829.500 10 0 59312 60300.00000 0 9587486.469 3897349.350 23313499.422 10 0 59312 61200.00000 0 8680948.718 6616656.434 23054400.266 10 0 59312 62100.00000 0 8000665.712 9340058.726 22347576.289 10 0 59312 63000.00000 0 7552788.471 11996172.963 21206760.746 10 0 59312 63900.00000 0 7330632.760 14514668.639 19654109.720 10 0 59312 64800.00000 0 7315098.290 16828991.354 17719773.269 10 0 59312 65700.00000 0 7475624.046 18878939.412 15441311.792 10 0 59312 66600.00000 0 7771639.100 20612986.905 12862968.596 10 0 59312 67500.00000 0 8154447.358 21990256.982 10034812.363 10 0 59312 68400.00000 0 8569466.455 22982063.362 7011765.796 10 0 59312 69300.00000 0 8958725.922 23572956.044 3852539.221 10 0 59312 70200.00000 0 9263518.750 23761227.879 618489.799 10 0 59312 71100.00000 0 9427093.835 23558861.291 -2627571.376 10 0 59312 72000.00000 0 9397274.973 22990917.805 -5822600.722 10 0 59312 72900.00000 0 9128895.128 22094396.623 -8904548.105 10 0 59312 73800.00000 0 8585942.349 20916610.644 -11813563.105 10 0 59312 74700.00000 0 7743326.000 19513148.711 -14493157.787 10 0 59312 75600.00000 0 6588188.040 17945510.252 -16891303.268 10 0 59312 76500.00000 0 5120703.113 16278511.865 -18961438.810 10 0 59312 77400.00000 0 3354332.910 14577574.895 -20663373.930 10 0 59312 78300.00000 0 1315523.039 12906007.749 -21964066.398 10 0 59312 79200.00000 0 -957146.115 11322396.556 -22838261.454 10 0 59312 80100.00000 0 -3414320.142 9878213.110 -23268980.259 10 0 59312 81000.00000 0 -5997687.426 8615739.689 -23247848.539 10 0 59312 81900.00000 0 -8642177.553 7566396.883 -22775259.333 10 0 59312 82800.00000 0 -11278450.818 6749543.817 -21860366.746 10 0 59312 83700.00000 0 -13835576.344 6171800.254 -20520910.748 10 0 59312 84600.00000 0 -16243788.286 5826918.344 -18782876.070 10 0 59312 85500.00000 0 -18437206.049 5696208.873 -16679991.387 10 0 59313 0.00000 0 -20356405.844 5749503.572 -14253077.970 10 0 59313 900.00000 0 -21950736.566 5946612.602 -11549259.555 10 0 59313 1800.00000 0 -23180284.098 6239215.360 -8621049.197 10 0 59313 2700.00000 0 -24017400.803 6573104.549 -5525329.412 10 0 59313 3600.00000 0 -24447737.912 6890688.140 -2322246.145 10 0 59313 4500.00000 0 -24470736.323 7133643.019 925962.032 10 0 59313 5400.00000 0 -24099556.073 7245607.380 4156176.383 10 0 59313 6300.00000 0 -23360447.560 7174797.230 7305628.049 10 0 59313 7200.00000 0 -22291591.361 6876435.514 10313121.127 10 0 59313 8100.00000 0 -20941455.934 6314890.284 13120224.504 10 0 59313 9000.00000 0 -19366742.714 5465430.660 15672408.863 10 0 59313 9900.00000 0 -17630005.473 4315525.636 17920106.451 10 0 59313 10800.00000 0 -15797044.269 2865630.030 19819673.033 10 0 59313 11700.00000 0 -13934183.519 1129423.610 21334233.549 10 0 59313 12600.00000 0 -12105548.343 -866507.611 22434395.363 10 0 59313 13500.00000 0 -10370453.005 -3083535.520 23098815.782 10 0 59313 14400.00000 0 -8781010.261 -5472364.420 23314613.353 10 0 59313 15300.00000 0 -7380061.016 -7974859.456 23077615.409 10 0 59313 16200.00000 0 -6199509.998 -10526253.741 22392437.415 10 0 59313 17100.00000 0 -5259136.139 -13057643.205 21272392.746 10 0 59313 18000.00000 0 -4565926.507 -15498666.084 19739234.627 10 0 59313 18900.00000 0 -4113960.698 -17780256.290 17822735.045 10 0 59313 19800.00000 0 -3884849.614 -19837356.656 15560108.431 10 0 59313 20700.00000 0 -3848709.411 -21611479.387 12995290.945 10 0 59313 21600.00000 0 -3965628.904 -23053007.379 10178088.904 10 0 59313 22500.00000 0 -4187567.946 -24123140.549 7163212.560 10 0 59313 23400.00000 0 -4460606.193 -24795405.920 4009213.842 10 0 59313 24300.00000 0 -4727446.673 -25056668.555 777348.644 10 0 59313 25200.00000 0 -4930067.850 -24907601.117 -2469614.100 10 0 59313 26100.00000 0 -5012411.471 -24362592.564 -5668613.089 10 0 59313 27000.00000 0 -4922991.911 -23449100.124 -8757520.976 10 0 59313 27900.00000 0 -4617316.004 -22206471.991 -11676352.187 10 0 59313 28800.00000 0 -4060010.422 -20684290.572 -14368428.367 10 0 59313 29700.00000 0 -3226566.040 -18940306.173 -16781478.666 10 0 59313 30600.00000 0 -2104624.902 -17038047.984 -18868653.536 10 0 59313 31500.00000 0 -694754.781 -15044212.689 -20589432.417 10 0 59313 32400.00000 0 989322.280 -13025939.922 -21910408.077 10 0 59313 33300.00000 0 2921058.075 -11048088.345 -22805932.847 10 0 59313 34200.00000 0 5061950.379 -9170625.883 -23258614.591 10 0 59313 35100.00000 0 7362923.886 -7446242.508 -23259653.294 10 0 59313 36000.00000 0 9766163.546 -5918284.561 -22809011.979 10 0 59313 36900.00000 0 12207324.968 -4619096.138 -21915418.747 10 0 59313 37800.00000 0 14618030.896 -3568835.942 -20596199.809 10 0 59313 38700.00000 0 16928550.749 -2774818.250 -18876946.414 10 0 59313 39600.00000 0 19070552.221 -2231404.782 -16791021.679 10 0 59313 40500.00000 0 20979810.832 -1920451.252 -14378916.362 10 0 59313 41400.00000 0 22598764.697 -1812289.124 -11687465.447 10 0 59313 42300.00000 0 23878807.856 -1867200.663 -8768940.392 10 0 59313 43200.00000 0 24782226.285 -2037324.464 -5680034.311 10 0 59313 44100.00000 0 25283695.399 -2268910.439 -2480759.692 10 0 59313 45000.00000 0 25371276.099 -2504828.309 766719.711 10 0 59313 45900.00000 0 25046867.516 -2687222.830 3999299.803 10 0 59313 46800.00000 0 24326097.419 -2760202.619 7154165.879 10 0 59313 47700.00000 0 23237654.995 -2672448.021 10170016.612 10 0 59313 48600.00000 0 21822094.259 -2379626.852 12988257.998 10 0 59313 49500.00000 0 20130158.631 -1846515.024 15554143.634 10 0 59313 50400.00000 0 18220697.342 -1048731.673 17817838.822 10 0 59313 51300.00000 0 16158261.346 25985.253 19735387.826 10 0 59313 52200.00000 0 14010479.594 1377017.550 21269565.691 10 0 59313 53100.00000 0 11845325.581 2990652.278 22390598.337 10 0 59313 54000.00000 0 9728388.210 4840424.210 23076737.523 10 0 59313 54900.00000 0 7720260.579 6888001.788 23314680.003 10 0 59313 55800.00000 0 5874155.111 9084580.469 23099823.211 10 0 59313 56700.00000 0 4233843.718 11372726.252 22436352.897 10 0 59313 57600.00000 0 2832007.986 13688593.396 21337161.178 10 0 59313 58500.00000 0 1689067.248 15964424.694 19823596.610 10 0 59313 59400.00000 0 812532.406 18131230.799 17925050.921 10 0 59313 60300.00000 0 196911.382 20121537.562 15678390.078 10 0 59313 61200.00000 0 -175830.817 21872087.114 13127240.333 10 0 59313 62100.00000 0 -335277.778 23326380.275 10321142.706 10 0 59313 63000.00000 0 -321075.825 24436954.131 7314591.931 10 0 59313 63900.00000 0 -181020.003 25167299.534 4165978.407 10 0 59313 64800.00000 0 31206.548 25493338.228 936453.639 10 0 59313 65700.00000 0 258543.689 25404397.516 -2311258.667 10 0 59313 66600.00000 0 443209.017 24903641.712 -5514082.405 10 0 59313 67500.00000 0 529383.339 24007942.125 -8609815.713 10 0 59313 68400.00000 0 465812.636 22747191.047 -11538340.275 10 0 59313 69300.00000 0 208215.898 21163088.791 -14242789.390 10 0 59313 70200.00000 0 -278603.571 19307454.674 -16670651.986 10 0 59313 71100.00000 0 -1019033.168 17240132.835 -18774791.107 10 0 59313 72000.00000 0 -2025385.729 15026580.622 -20514357.212 10 0 59313 72900.00000 0 -3297148.078 12735240.249 -21855578.902 10 0 59313 73800.00000 0 -4820775.881 10434803.271 -22772416.167 10 0 59313 74700.00000 0 -6570044.351 8191481.724 -23247063.906 10 0 59313 75600.00000 0 -8506941.235 6066399.103 -23270296.417 10 0 59313 76500.00000 0 -10583065.883 4113209.219 -22841646.449 10 0 59313 77400.00000 0 -12741477.048 2376041.410 -21969415.492 10 0 59313 78300.00000 0 -14918913.400 887856.824 -20670515.006 10 0 59313 79200.00000 0 -17048295.069 -330716.572 -18970141.359 10 0 59313 80100.00000 0 -19061402.595 -1272022.505 -16901290.354 10 0 59313 81000.00000 0 -20891622.019 -1941462.647 -14504120.202 10 0 59313 81900.00000 0 -22476641.809 -2357027.895 -11825174.696 10 0 59313 82800.00000 0 -23760988.865 -2548295.141 -8916481.245 10 0 59313 83700.00000 0 -24698297.388 -2554932.570 -5834540.954 10 0 59313 84600.00000 0 -25253215.268 -2424777.295 -2639230.184 10 0 59313 85500.00000 0 -25402867.632 -2211567.180 607364.806 10 0 59314 0.00000 0 -25137815.882 -1972423.531 3842157.180 10 0 59314 900.00000 0 -24462471.236 -1765192.160 7002289.185 10 0 59314 1800.00000 0 -23394946.207 -1645755.353 10026356.642 10 0 59314 2700.00000 0 -21966348.570 -1665430.679 12855605.195 10 0 59314 3600.00000 0 -20219549.081 -1868565.923 15435073.766 10 0 59314 4500.00000 0 -18207473.714 -2290433.601 17714662.913 10 0 59314 5400.00000 0 -15990992.518 -2955514.181 19650107.333 10 0 59314 6300.00000 0 -13636493.383 -3876241.256 21203833.748 10 0 59314 7200.00000 0 -11213242.196 -5052262.143 22345687.836 10 0 59314 8100.00000 0 -8790639.374 -6470245.731 23053516.588 10 0 59314 9000.00000 0 -6435486.805 -8104246.446 23313595.327 10 0 59314 9900.00000 0 -4209378.605 -9916609.860 23120891.557 10 0 59314 10800.00000 0 -2166323.569 -11859382.926 22479160.917 10 0 59314 11700.00000 0 -350697.407 -13876170.759 21400873.542 10 0 59314 12600.00000 0 1204390.874 -15904363.155 19906972.286 10 0 59314 13500.00000 0 2478251.511 -17877638.621 18026467.311 10 0 59314 14400.00000 0 3463238.477 -19728641.934 15795874.526 10 0 59314 15300.00000 0 4164820.967 -21391723.732 13258508.434 10 0 59314 16200.00000 0 4601100.004 -22805627.882 10463642.677 10 0 59314 17100.00000 0 4801791.595 -23916014.260 7465554.187 10 0 59314 18000.00000 0 4806720.126 -24677711.169 4322469.389 10 0 59314 18900.00000 0 4663886.452 -25056602.769 1095432.845 10 0 59314 19800.00000 0 4427193.039 -25031072.191 -2152879.584 10 0 59314 20700.00000 0 4153923.005 -24592939.395 -5359379.628 10 0 59314 21600.00000 0 3902080.331 -23747854.117 -8461793.558 10 0 59314 22500.00000 0 3727704.397 -22515127.272 -11399872.950 10 0 59314 23400.00000 0 3682272.961 -20927007.554 -14116565.359 10 0 59314 24300.00000 0 3810303.962 -19027433.514 -16559121.982 10 0 59314 25200.00000 0 4147257.924 -16870313.432 -18680120.809 10 0 59314 26100.00000 0 4717829.998 -14517404.606 -20438385.451 10 0 59314 27000.00000 0 5534704.177 -12035880.548 -21799782.184 10 0 59314 27900.00000 0 6597822.771 -9495687.255 -22737880.154 10 0 59314 28800.00000 0 7894202.540 -6966798.380 -23234462.405 10 0 59314 29700.00000 0 9398306.073 -4516482.994 -23279878.248 10 0 59314 30600.00000 0 11072953.805 -2206698.942 -22873230.469 10 0 59314 31500.00000 0 12870739.462 -91719.479 -22022393.868 10 0 59314 32400.00000 0 14735890.746 1783908.953 -20743864.699 10 0 59314 33300.00000 0 16606498.433 3386993.746 -19062443.625 10 0 59314 34200.00000 0 18417021.433 4696840.987 -17010757.925 10 0 59314 35100.00000 0 20100963.684 5705871.385 -14628631.648 10 0 59314 36000.00000 0 21593611.238 6419682.447 -11962315.343 10 0 59314 36900.00000 0 22834715.010 6856555.171 -9063589.898 10 0 59314 37800.00000 0 23771006.610 7046426.916 -5988761.526 10 0 59314 38700.00000 0 24358441.419 7029374.568 -2797567.251 10 0 59314 39600.00000 0 24564074.215 6853672.781 447987.629 10 0 59314 40500.00000 0 24367488.030 6573510.149 3684837.241 10 0 59314 41400.00000 0 23761715.639 6246460.713 6850084.088 10 0 59314 42300.00000 0 22753614.446 5930818.520 9882224.667 10 0 59314 43200.00000 0 21363678.647 5682908.824 12722347.480 10 0 59314 44100.00000 0 19625296.228 5554490.368 15315279.646 10 0 59314 45000.00000 0 17583481.804 5590359.232 17610659.510 10 0 59314 45900.00000 0 15293138.259 5826256.048 19563914.348 10 0 59314 46800.00000 0 12816919.761 6287165.432 21137124.327 10 0 59314 47700.00000 0 10222785.312 6986079.761 22299756.243 10 0 59314 48600.00000 0 7581344.652 7923279.838 23029253.264 10 0 59314 49500.00000 0 4963106.644 9086163.191 23311469.790 10 0 59314 50400.00000 0 2435744.232 10449627.789 23140943.437 10 0 59314 51300.00000 0 61489.017 11976995.698 22520999.267 10 0 59314 52200.00000 0 -2105237.109 13621438.740 21463684.465 10 0 59314 53100.00000 0 -4019855.613 15327847.063 19989534.717 10 0 59314 54000.00000 0 -5649246.739 17035063.150 18127176.672 10 0 59314 54900.00000 0 -6972880.515 18678388.320 15912773.839 10 0 59314 55800.00000 0 -7983417.236 20192257.197 13389326.309 10 0 59314 56700.00000 0 -8686753.530 21512968.396 10605837.428 10 0 59314 57600.00000 0 -9101513.218 22581357.046 7616363.263 10 0 59314 58500.00000 0 -9258005.382 23345296.913 4478963.116 10 0 59314 59400.00000 0 -9196694.525 23761926.808 1254571.438 10 0 59314 60300.00000 0 -8966248.284 23799507.448 -1994186.883 10 0 59314 61200.00000 0 -8621245.891 23438830.257 -5204214.457 10 0 59314 62100.00000 0 -8219644.967 22674118.459 -8313168.554 10 0 59314 63000.00000 0 -7820114.401 21513382.092 -11260673.283 10 0 59314 63900.00000 0 -7479346.650 19978211.580 -13989492.800 10 0 59314 64800.00000 0 -7249463.567 18103018.259 -16446642.612 10 0 59314 65700.00000 0 -7175625.752 15933753.169 -18584417.354 10 0 59314 66600.00000 0 -7293946.662 13526157.484 -20361315.159 10 0 59314 67500.00000 0 -7629799.773 10943617.219 -21742841.028 10 0 59314 68400.00000 0 -8196590.441 8254711.186 -22702174.023 10 0 59314 69300.00000 0 -8995044.553 5530553.899 -23220685.793 10 0 59314 70200.00000 0 -10013044.368 2842043.355 -23288300.825 10 0 59314 71100.00000 0 -11226019.094 257127.340 -22903691.778 10 0 59314 72000.00000 0 -12597874.521 -2161798.835 -22074306.237 10 0 59314 72900.00000 0 -14082423.583 -4360255.935 -20816224.336 10 0 59314 73800.00000 0 -15625258.701 -6293708.396 -19153849.734 10 0 59314 74700.00000 0 -17165988.225 -7929172.337 -17119439.501 10 0 59314 75600.00000 0 -18640743.839 -9246337.991 -14752481.506 10 0 59314 76500.00000 0 -19984854.263 -10238160.584 -12098930.764 10 0 59314 77400.00000 0 -21135573.193 -10910895.808 -9210319.142 10 0 59314 78300.00000 0 -22034746.902 -11283579.357 -6142755.312 10 0 59314 79200.00000 0 -22631309.089 -11386973.267 -2955834.221 10 0 59314 80100.00000 0 -22883497.543 -11262024.309 288522.583 10 0 59314 81000.00000 0 -22760698.757 -10957900.326 3527272.956 10 0 59314 81900.00000 0 -22244842.155 -10529688.320 6697482.608 10 0 59314 82800.00000 0 -21331284.564 -10035852.378 9737551.467 10 0 59314 83700.00000 0 -20029147.118 -9535559.713 12588413.598 10 0 59314 84600.00000 0 -18361089.804 -9085988.601 15194686.902 10 0 59314 85500.00000 0 -16362532.715 -8739732.565 17505749.861 10 0 59315 0.00000 0 -14080356.253 -8542410.916 19476724.355 10 0 59315 900.00000 0 -11571134.001 -8530587.243 21069345.752 10 0 59315 1800.00000 0 -8898972.499 -8730082.712 22252703.216 10 0 59315 2700.00000 0 -6133046.722 -9154757.474 23003836.924 10 0 59315 3600.00000 0 -3344933.984 -9805809.492 23308180.764 10 0 59315 4500.00000 0 -605856.524 -10671622.001 23159842.453 10 0 59315 5400.00000 0 2016053.365 -11728165.661 22561716.116 10 0 59315 6300.00000 0 4458352.835 -12939939.148 21525425.280 10 0 59315 7200.00000 0 6666645.410 -14261409.116 20071097.459 10 0 59315 8100.00000 0 8596598.372 -15638889.660 18226974.509 10 0 59315 9000.00000 0 10215537.695 -17012782.928 16028865.981 10 0 59315 9900.00000 0 11503555.053 -18320087.242 13519455.704 10 0 59315 10800.00000 0 12454081.827 -19497067.742 10747474.610 10 0 59315 11700.00000 0 13073907.184 -20481977.478 7766755.501 10 0 59315 12600.00000 0 13382640.469 -21217714.457 4635187.932 10 0 59315 13500.00000 0 13411641.632 -21654302.717 1413593.437 10 0 59315 14400.00000 0 13202465.657 -21751092.644 -1835456.975 10 0 59315 15300.00000 0 12804887.401 -21478587.351 -5048859.715 10 0 59315 16200.00000 0 12274591.108 -20819817.779 -8164205.940 10 0 59315 17100.00000 0 11670622.772 -19771207.865 -11120995.072 10 0 59315 18000.00000 0 11052713.649 -18342892.898 -13861810.516 10 0 59315 18900.00000 0 10478588.440 -16558477.038 -16333434.551 10 0 59315 19800.00000 0 10001372.154 -14454239.553 -18487880.704 10 0 59315 20700.00000 0 9667205.324 -12077822.478 -20283323.616 10 0 59315 21600.00000 0 9513168.220 -9486453.837 -21684908.686 10 0 59315 22500.00000 0 9565601.640 -6744779.932 -22665426.212 10 0 59315 23400.00000 0 9838895.040 -3922396.394 -23205837.379 10 0 59315 24300.00000 0 10334793.101 -1091179.935 -23295642.392 10 0 59315 25200.00000 0 11042250.148 1677469.121 -22933083.930 10 0 59315 26100.00000 0 11937838.875 4315359.734 -22125182.142 10 0 59315 27000.00000 0 12986696.718 6760105.903 -20887600.477 10 0 59315 27900.00000 0 14143970.712 8957478.300 -19244344.676 10 0 59315 28800.00000 0 15356700.756 10863414.814 -17227300.352 10 0 59315 29700.00000 0 16566062.736 12445607.176 -14875617.596 10 0 59315 30600.00000 0 17709877.678 13684598.356 -12234953.928 10 0 59315 31500.00000 0 18725281.670 14574345.631 -9356589.863 10 0 59315 32400.00000 0 19551444.203 15122226.622 -6296433.861 10 0 59315 33300.00000 0 20132220.300 15348488.866 -3113935.813 10 0 59315 34200.00000 0 20418624.213 15285166.874 129069.686 10 0 59315 35100.00000 0 20371019.856 14974513.157 3369567.544 10 0 59315 36000.00000 0 19960934.885 14467010.240 6544590.015 10 0 59315 36900.00000 0 19172421.187 13819048.381 9592443.692 10 0 59315 37800.00000 0 18002903.661 13090367.901 12453911.255 10 0 59315 38700.00000 0 16463480.787 12341374.847 15073404.183 10 0 59315 39600.00000 0 14578663.635 11630443.942 17400043.612 10 0 59315 40500.00000 0 12385563.624 11011323.145 19388648.281 10 0 59315 41400.00000 0 9932562.364 10530749.537 21000610.497 10 0 59315 42300.00000 0 7277518.723 10226377.208 22204643.353 10 0 59315 43200.00000 0 4485587.272 10125104.378 22977385.197 10 0 59315 44100.00000 0 1626738.390 10241870.093 23303850.133 10 0 59315 45000.00000 0 -1226917.394 10578971.007 23177716.273 10 0 59315 45900.00000 0 -4003890.376 11125926.910 22601446.592 10 0 59315 46800.00000 0 -6636044.108 11859900.684 21586240.241 10 0 59315 47700.00000 0 -9061186.551 12746655.160 20151815.312 10 0 59315 48600.00000 0 -11225413.236 13742006.908 18326027.112 10 0 59315 49500.00000 0 -13085105.928 14793716.142 16144329.026 10 0 59315 50400.00000 0 -14608504.440 15843733.546 13649086.037 10 0 59315 51300.00000 0 -15776787.050 16830709.761 10888753.807 10 0 59315 52200.00000 0 -16584615.324 17692662.010 7916938.842 10 0 59315 53100.00000 0 -17040121.460 18369685.529 4791357.834 10 0 59315 54000.00000 0 -17164339.670 18806595.347 1572716.268 10 0 59315 54900.00000 0 -16990106.364 18955386.656 -1676471.807 10 0 59315 55800.00000 0 -16560476.428 18777409.648 -4893099.612 10 0 59315 56700.00000 0 -15926723.043 18245166.426 -8014695.074 10 0 59315 57600.00000 0 -15146006.134 17343653.486 -10980635.640 10 0 59315 58500.00000 0 -14278808.567 16071192.679 -13733326.453 10 0 59315 59400.00000 0 -13386248.701 14439714.797 -16219318.776 10 0 59315 60300.00000 0 -12527383.036 12474483.152 -18390346.920 10 0 59315 61200.00000 0 -11756612.882 10213267.963 -20204263.585 10 0 59315 62100.00000 0 -11121304.296 7705005.224 -21625855.761 10 0 59315 63000.00000 0 -10659721.414 5007995.195 -22627525.824 10 0 59315 63900.00000 0 -10399359.983 2187714.843 -23189825.006 10 0 59315 64800.00000 0 -10355750.964 -685665.655 -23301829.392 10 0 59315 65700.00000 0 -10531784.351 -3539960.000 -22961351.504 10 0 59315 66600.00000 0 -10917581.570 -6303726.088 -22174983.525 10 0 59315 67500.00000 0 -11490921.901 -8908995.847 -20957971.324 10 0 59315 68400.00000 0 -12218205.200 -11293862.095 -19333921.478 10 0 59315 69300.00000 0 -13055910.737 -13404815.664 -17334346.558 10 0 59315 70200.00000 0 -13952491.135 -15198736.333 -14998056.992 10 0 59315 71100.00000 0 -14850622.023 -16644455.365 -12370410.675 10 0 59315 72000.00000 0 -15689712.822 -17723825.033 -9502434.452 10 0 59315 72900.00000 0 -16408572.917 -18432251.108 -6449834.120 10 0 59315 73800.00000 0 -16948120.584 -18778666.687 -3271911.970 10 0 59315 74700.00000 0 -17254020.001 -18784949.108 -30413.047 10 0 59315 75600.00000 0 -17279134.444 -18484805.246 3211677.253 10 0 59315 76500.00000 0 -16985691.403 -17922172.878 6391360.406 10 0 59315 77400.00000 0 -16347067.378 -17149206.306 9446852.351 10 0 59315 78300.00000 0 -15349116.221 -16223931.940 12318787.041 10 0 59315 79200.00000 0 -13990984.116 -15207673.482 14951372.105 10 0 59315 80100.00000 0 -12285376.048 -14162355.902 17293473.736 10 0 59315 81000.00000 0 -10258261.717 -13147802.329 19299609.680 10 0 59315 81900.00000 0 -7948032.373 -12219138.018 20930831.116 10 0 59315 82800.00000 0 -5404143.139 -11424410.768 22155476.561 10 0 59315 83700.00000 0 -2685296.738 -10802527.794 22949783.657 10 0 59315 84600.00000 0 142756.460 -10381595.509 23298347.454 10 0 59315 85500.00000 0 3009711.196 -10177731.656 23194416.805 99